Flag for Austria Weather past 2 weeks in Enns, Upper Austria, Austria

Now
47 °F

Passing clouds.


Feels Like: 44 °F
Forecast: 29 / 43 °F
Wind: 6 mph from West

Location: Linz / Hoersching-Flughafen

Current Time: Mar 3, 2015 at 6:32:22 PM

Latest Report: Mar 3, 2015 at 5:00 PM


Visibility: 25 mi

Pressure: 30.20 "Hg

Humidity: 42%

Dew point: 25 °F

Location of EnnsLocation

Historic Weather in Enns — Graph

°F

Enns temperature yesterday

Maximum temperature yesterday: 46 °F (at 10:00 AM)
Minimum temperature yesterday: 36 °F (at 11:00 PM)
Average temperature yesterday: 40 °F

Past Weeks' High & Low Weather Summary

 TemperatureHumidityPressure
High50 °F (Feb 16, 5:00 PM)100% (Feb 20, 4:00 AM)30.81 "Hg (Feb 20, 4:00 AM)
Low23 °F (Feb 20, 6:00 AM)42% (Mar 3, 5:00 PM)29.54 "Hg (Feb 21, 5:00 PM)
Average36 °F83%30.08 "Hg
* Reported Feb 16 5:00 PM — Mar 3 5:00 PM, Enns, Weather by CustomWeather, © 2015

Note: Actual official high and low records may vary slightly from our data, if they occured in-between our weather recording intervals... More about our weather records

Advertising

Enns weather history for previous 24 hours

 ConditionsComfort  
Time TempWeatherWind HumidityBarometerVisibility
5:00 PM
Tue, Mar 3
47 °FPassing clouds.6 mph42%30.20 "Hg25 mi
4:00 PM48 °FScattered clouds.9 mph43%30.20 "Hg28 mi
3:00 PM47 °FScattered clouds.8 mph46%30.22 "Hg14 mi
2:00 PM46 °FPartly sunny.8 mph46%30.23 "Hg17 mi
1:00 PM46 °FOvercast.9 mph51%30.24 "Hg18 mi
12:00 PM44 °FPartly sunny.9 mph57%30.25 "Hg17 mi
11:00 AM42 °FPartly sunny.9 mph59%30.26 "Hg12 mi
10:00 AM41 °FPassing clouds.10 mph60%30.26 "Hg22 mi
9:00 AM39 °FPassing clouds.6 mph67%30.25 "Hg25 mi
8:00 AM36 °FScattered clouds.6 mph73%30.25 "Hg25 mi
7:00 AM35 °FPassing clouds.6 mph76%30.22 "Hg28 mi
6:00 AM35 °FPassing clouds.7 mph78%30.22 "Hg28 mi
5:00 AM37 °FOvercast.10 mph73%30.19 "Hg31 mi
4:00 AM36 °FOvercast.7 mph80%30.17 "Hg31 mi
3:00 AM35 °FPassing clouds.8 mph80%30.16 "Hg31 mi
2:00 AM35 °FSnow flurries. Low clouds.10 mph82%30.15 "Hg25 mi
1:00 AM35 °FLight snow. Low clouds.14 mph83%30.10 "Hg16 mi
12:00 AM39 °FOvercast.9 mph78%30.04 "Hg31 mi
11:00 PM
Mon, Mar 2
36 °FOvercast.7 mph88%30.00 "Hg31 mi
10:00 PM39 °FOvercast.5 mph82%29.95 "Hg31 mi
9:00 PM39 °FOvercast.6 mph82%29.96 "Hg31 mi
8:00 PM39 °FOvercast.6 mph86%29.95 "Hg28 mi
7:00 PM37 °FOvercast.3 mph90%29.93 "Hg31 mi
6:00 PM39 °FOvercast.9 mph82%29.90 "Hg31 mi
Weather by CustomWeather, © 2015

See weather overviewHow to use our weather pages